Time,TemperatureF,DewpointF,PressureIn,WindDirection,WindDirectionDegrees,WindSpeedMPH,WindSpeedGustMPH,Humidity,HourlyPrecipIn,Conditions,Clouds,dailyrainin,SoftwareType,DateUTC
2013-02-26 00:01:00,38.0,34.0,30.33,WNW,286,4.0,5.0,84,-99.99,,,-99.99,,2013-02-26 08:01:00,
2013-02-26 00:11:00,38.0,35.0,30.33,WNW,291,6.0,7.0,88,-99.99,,,-99.99,,2013-02-26 08:11:00,
2013-02-26 00:21:00,38.0,34.0,30.32,West,264,5.0,7.0,83,-99.99,,,-99.99,,2013-02-26 08:21:00,
2013-02-26 00:31:00,38.0,30.0,30.32,West,277,5.0,6.0,73,-99.99,,,-99.99,,2013-02-26 08:31:00,
2013-02-26 00:41:00,38.0,32.0,30.33,WNW,301,5.0,6.0,79,-99.99,,,-99.99,,2013-02-26 08:41:00,
2013-02-26 00:52:00,38.0,30.0,30.33,West,269,4.0,7.0,72,-99.99,,,-99.99,,2013-02-26 08:52:00,
2013-02-26 01:01:00,38.0,30.0,30.33,WSW,258,4.0,6.0,73,-99.99,,,-99.99,,2013-02-26 09:01:00,
2013-02-26 01:11:00,37.0,31.0,30.33,WSW,254,3.0,6.0,78,-99.99,,,-99.99,,2013-02-26 09:11:00,
2013-02-26 01:21:00,37.0,30.0,30.33,WSW,240,4.0,7.0,74,-99.99,,,-99.99,,2013-02-26 09:21:00,
2013-02-26 01:31:00,38.0,32.0,30.33,WSW,258,8.0,12.0,80,-99.99,,,-99.99,,2013-02-26 09:31:00,
2013-02-26 01:43:00,38.0,33.0,30.34,WSW,253,10.0,18.0,84,-99.99,,,-99.99,,2013-02-26 09:43:00,
2013-02-26 01:51:00,38.0,34.0,30.34,WSW,256,7.0,11.0,85,-99.99,,,-99.99,,2013-02-26 09:51:00,
2013-02-26 02:01:00,38.0,34.0,30.34,West,263,8.0,16.0,83,-99.99,,,-99.99,,2013-02-26 10:01:00,
2013-02-26 02:11:00,38.0,33.0,30.34,WSW,258,8.0,11.0,80,-99.99,,,-99.99,,2013-02-26 10:11:00,
2013-02-26 02:21:00,38.0,34.0,30.34,West,269,9.0,17.0,84,-99.99,,,-99.99,,2013-02-26 10:21:00,
2013-02-26 02:31:00,38.0,35.0,30.34,West,274,12.0,20.0,88,-99.99,,,-99.99,,2013-02-26 10:31:00,
2013-02-26 02:41:00,38.0,35.0,30.34,West,275,12.0,18.0,89,-99.99,,,-99.99,,2013-02-26 10:41:00,
2013-02-26 02:51:00,38.0,35.0,30.33,West,274,14.0,22.0,90,-99.99,,,-99.99,,2013-02-26 10:51:00,
2013-02-26 03:01:00,38.0,36.0,30.34,West,273,16.0,23.0,91,-99.99,,,-99.99,,2013-02-26 11:01:00,
2013-02-26 03:11:00,38.0,36.0,30.34,West,277,14.0,23.0,91,-99.99,,,-99.99,,2013-02-26 11:11:00,
2013-02-26 03:21:00,38.0,36.0,30.34,West,277,15.0,22.0,91,-99.99,,,-99.99,,2013-02-26 11:21:00,
2013-02-26 03:31:00,38.0,36.0,30.34,West,273,12.0,20.0,90,-99.99,,,-99.99,,2013-02-26 11:31:00,
2013-02-26 03:41:00,38.0,36.0,30.34,West,273,12.0,18.0,91,-99.99,,,-99.99,,2013-02-26 11:41:00,
2013-02-26 03:52:00,38.0,36.0,30.34,West,271,11.0,16.0,91,-99.99,,,-99.99,,2013-02-26 11:52:00,
2013-02-26 04:01:00,38.0,36.0,30.34,West,279,9.0,15.0,93,-99.99,,,-99.99,,2013-02-26 12:01:00,
2013-02-26 04:11:00,38.0,37.0,30.34,West,276,12.0,18.0,94,-99.99,,,-99.99,,2013-02-26 12:11:00,
2013-02-26 04:22:00,38.0,37.0,30.34,West,278,11.0,20.0,94,-99.99,,,-99.99,,2013-02-26 12:22:00,
2013-02-26 04:32:00,38.0,37.0,30.35,WNW,282,11.0,16.0,95,-99.99,,,-99.99,,2013-02-26 12:32:00,
2013-02-26 04:42:00,38.0,37.0,30.35,WNW,283,9.0,15.0,96,-99.99,,,-99.99,,2013-02-26 12:42:00,
2013-02-26 04:52:00,38.0,37.0,30.34,WNW,284,12.0,20.0,95,-99.99,,,-99.99,,2013-02-26 12:52:00,
2013-02-26 05:01:00,38.0,37.0,30.34,West,279,10.0,16.0,95,-99.99,,,-99.99,,2013-02-26 13:01:00,
2013-02-26 05:11:00,38.0,37.0,30.34,West,278,8.0,16.0,95,-99.99,,,-99.99,,2013-02-26 13:11:00,
2013-02-26 05:21:00,38.0,37.0,30.35,WNW,286,8.0,15.0,95,-99.99,,,-99.99,,2013-02-26 13:21:00,
2013-02-26 05:31:00,38.0,37.0,30.35,WNW,282,9.0,16.0,94,-99.99,,,-99.99,,2013-02-26 13:31:00,
2013-02-26 05:42:00,38.0,37.0,30.35,West,266,7.0,12.0,95,-99.99,,,-99.99,,2013-02-26 13:42:00,
2013-02-26 05:51:00,38.0,37.0,30.35,West,274,7.0,12.0,95,-99.99,,,-99.99,,2013-02-26 13:51:00,
2013-02-26 06:01:00,38.0,37.0,30.35,WNW,284,9.0,15.0,96,-99.99,,,-99.99,,2013-02-26 14:01:00,
2013-02-26 06:11:00,38.0,37.0,30.35,WNW,293,9.0,13.0,95,-99.99,,,-99.99,,2013-02-26 14:11:00,
2013-02-26 06:21:00,38.0,37.0,30.35,WNW,290,13.0,20.0,94,-99.99,,,-99.99,,2013-02-26 14:21:00,
2013-02-26 06:31:00,38.0,37.0,30.35,WNW,287,15.0,24.0,94,-99.99,,,-99.99,,2013-02-26 14:31:00,
2013-02-26 06:41:00,38.0,37.0,30.36,West,270,9.0,15.0,93,-99.99,,,-99.99,,2013-02-26 14:41:00,
2013-02-26 06:52:00,38.0,37.0,30.36,WNW,288,10.0,17.0,93,-99.99,,,-99.99,,2013-02-26 14:52:00,
2013-02-26 07:01:00,38.0,37.0,30.36,WNW,286,12.0,20.0,93,-99.99,,,-99.99,,2013-02-26 15:01:00,
2013-02-26 07:11:00,38.0,37.0,30.36,WNW,289,10.0,16.0,94,-99.99,,,-99.99,,2013-02-26 15:11:00,
2013-02-26 07:21:00,38.0,37.0,30.36,WNW,289,13.0,19.0,94,-99.99,,,-99.99,,2013-02-26 15:21:00,
2013-02-26 07:32:00,39.0,37.0,30.36,WNW,292,10.0,18.0,93,-99.99,,,-99.99,,2013-02-26 15:32:00,
2013-02-26 07:41:00,39.0,37.0,30.36,WNW,294,9.0,16.0,93,-99.99,,,-99.99,,2013-02-26 15:41:00,
2013-02-26 07:51:00,39.0,37.0,30.36,West,275,7.0,11.0,92,-99.99,,,-99.99,,2013-02-26 15:51:00,
2013-02-26 08:01:00,38.0,36.0,30.36,West,265,6.0,11.0,92,-99.99,,,-99.99,,2013-02-26 16:01:00,
2013-02-26 08:11:00,38.0,36.0,30.36,WSW,249,5.0,9.0,92,-99.99,,,-99.99,,2013-02-26 16:11:00,
2013-02-26 08:22:00,38.0,36.0,30.36,West,261,3.0,5.0,92,-99.99,,,-99.99,,2013-02-26 16:22:00,
2013-02-26 08:31:00,39.0,37.0,30.36,SSW,196,2.0,4.0,93,-99.99,,,-99.99,,2013-02-26 16:31:00,
2013-02-26 08:41:00,40.0,38.0,30.37,West,262,4.0,9.0,94,-99.99,,,-99.99,,2013-02-26 16:41:00,
2013-02-26 08:51:00,40.0,38.0,30.36,WNW,290,7.0,14.0,92,-99.99,,,-99.99,,2013-02-26 16:51:00,
2013-02-26 09:01:00,41.0,38.0,30.36,WNW,282,7.0,14.0,92,-99.99,,,-99.99,,2013-02-26 17:01:00,
2013-02-26 09:11:00,41.0,38.0,30.37,WNW,288,7.0,12.0,89,-99.99,,,-99.99,,2013-02-26 17:11:00,
2013-02-26 09:21:00,41.0,38.0,30.37,WNW,286,7.0,13.0,90,-99.99,,,-99.99,,2013-02-26 17:21:00,
2013-02-26 09:32:00,41.0,38.0,30.37,WNW,301,8.0,15.0,89,-99.99,,,-99.99,,2013-02-26 17:32:00,
2013-02-26 09:41:00,41.0,38.0,30.37,WNW,296,8.0,14.0,89,-99.99,,,-99.99,,2013-02-26 17:41:00,
2013-02-26 09:52:00,41.0,39.0,30.37,NW,304,6.0,11.0,90,-99.99,,,-99.99,,2013-02-26 17:52:00,
2013-02-26 10:01:00,42.0,39.0,30.37,WNW,298,5.0,9.0,89,-99.99,,,-99.99,,2013-02-26 18:01:00,
2013-02-26 10:12:00,42.0,39.0,30.37,WNW,301,6.0,11.0,89,-99.99,,,-99.99,,2013-02-26 18:12:00,
2013-02-26 10:21:00,42.0,39.0,30.37,WNW,301,6.0,11.0,89,-99.99,,,-99.99,,2013-02-26 18:21:00,
2013-02-26 10:32:00,43.0,37.0,30.36,WNW,300,7.0,13.0,78,-99.99,,,-99.99,,2013-02-26 18:32:00,
2013-02-26 10:42:00,44.0,37.0,30.36,WNW,298,6.0,11.0,76,-99.99,,,-99.99,,2013-02-26 18:42:00,
2013-02-26 10:52:00,44.0,36.0,30.36,NW,314,5.0,9.0,70,-99.99,,,-99.99,,2013-02-26 18:52:00,
2013-02-26 11:01:00,44.0,36.0,30.36,NW,314,5.0,9.0,70,-99.99,,,-99.99,,2013-02-26 19:01:00,
2013-02-26 11:11:00,45.0,36.0,30.36,WNW,298,6.0,9.0,70,-99.99,,,-99.99,,2013-02-26 19:11:00,
2013-02-26 11:22:00,45.0,35.0,30.35,NW,307,5.0,9.0,68,-99.99,,,-99.99,,2013-02-26 19:22:00,
2013-02-26 11:31:00,45.0,36.0,30.35,WNW,294,5.0,8.0,70,-99.99,,,-99.99,,2013-02-26 19:31:00,
2013-02-26 11:40:00,46.0,31.0,30.34,West,276,3.0,6.0,55,-99.99,,,-99.99,,2013-02-26 19:40:00,
2013-02-26 11:41:00,45.0,34.0,30.35,NW,321,4.0,8.0,64,-99.99,,,-99.99,,2013-02-26 19:41:00,
2013-02-26 11:51:00,45.0,33.0,30.35,NW,326,4.0,7.0,62,-99.99,,,-99.99,,2013-02-26 19:51:00,
2013-02-26 12:01:00,46.0,32.0,30.35,WNW,286,4.0,9.0,59,-99.99,,,-99.99,,2013-02-26 20:01:00,
2013-02-26 12:11:00,46.0,30.0,30.34,WNW,293,4.0,7.0,54,-99.99,,,-99.99,,2013-02-26 20:11:00,
2013-02-26 12:21:00,46.0,31.0,30.34,West,276,3.0,6.0,55,-99.99,,,-99.99,,2013-02-26 20:21:00,
2013-02-26 12:31:00,46.0,31.0,30.34,West,276,3.0,6.0,55,-99.99,,,-99.99,,2013-02-26 20:31:00,
2013-02-26 12:50:00,47.0,32.0,30.32,WNW,290,4.0,6.0,55,-99.99,,,-99.99,,2013-02-26 20:50:00,
2013-02-26 13:31:00,47.0,32.0,30.32,WNW,290,4.0,6.0,55,-99.99,,,-99.99,,2013-02-26 21:31:00,
2013-02-26 13:41:00,47.0,32.0,30.32,WNW,290,4.0,6.0,55,-99.99,,,-99.99,,2013-02-26 21:41:00,
2013-02-26 14:01:00,47.0,35.0,30.31,West,277,6.0,10.0,62,-99.99,,,-99.99,,2013-02-26 22:01:00,
2013-02-26 14:11:00,47.0,35.0,30.31,WNW,290,7.0,11.0,62,-99.99,,,-99.99,,2013-02-26 22:11:00,
2013-02-26 14:21:00,46.0,34.0,30.31,WNW,291,9.0,12.0,62,-99.99,,,-99.99,,2013-02-26 22:21:00,
2013-02-26 14:31:00,46.0,34.0,30.31,WNW,282,8.0,12.0,64,-99.99,,,-99.99,,2013-02-26 22:31:00,
2013-02-26 14:41:00,46.0,34.0,30.31,WNW,284,9.0,15.0,63,-99.99,,,-99.99,,2013-02-26 22:41:00,
2013-02-26 14:51:00,46.0,34.0,30.30,WNW,299,5.0,9.0,63,-99.99,,,-99.99,,2013-02-26 22:51:00,
2013-02-26 15:01:00,46.0,34.0,30.30,WNW,297,9.0,13.0,62,-99.99,,,-99.99,,2013-02-26 23:01:00,
2013-02-26 15:11:00,46.0,34.0,30.30,West,275,6.0,10.0,63,-99.99,,,-99.99,,2013-02-26 23:11:00,
2013-02-26 15:21:00,46.0,34.0,30.30,WNW,284,7.0,13.0,61,-99.99,,,-99.99,,2013-02-26 23:21:00,
2013-02-26 15:31:00,46.0,34.0,30.29,WNW,286,7.0,11.0,62,-99.99,,,-99.99,,2013-02-26 23:31:00,
2013-02-26 15:41:00,46.0,34.0,30.29,WNW,284,5.0,9.0,62,-99.99,,,-99.99,,2013-02-26 23:41:00,
2013-02-26 15:52:00,46.0,34.0,30.29,WNW,285,6.0,9.0,62,-99.99,,,-99.99,,2013-02-26 23:52:00,
2013-02-26 16:01:00,46.0,34.0,30.29,WNW,285,6.0,9.0,62,-99.99,,,-99.99,,2013-02-27 00:01:00,
2013-02-26 16:11:00,46.0,34.0,30.28,West,279,5.0,7.0,62,-99.99,,,-99.99,,2013-02-27 00:11:00,
2013-02-26 16:21:00,46.0,34.0,30.28,West,281,6.0,10.0,63,-99.99,,,-99.99,,2013-02-27 00:21:00,
2013-02-26 16:31:00,46.0,34.0,30.28,West,281,6.0,8.0,64,-99.99,,,-99.99,,2013-02-27 00:31:00,
2013-02-26 16:41:00,46.0,34.0,30.28,West,277,6.0,9.0,63,-99.99,,,-99.99,,2013-02-27 00:41:00,
2013-02-26 16:51:00,46.0,35.0,30.28,West,275,5.0,8.0,63,-99.99,,,-99.99,,2013-02-27 00:51:00,
2013-02-26 17:01:00,46.0,34.0,30.27,WNW,292,5.0,9.0,62,-99.99,,,-99.99,,2013-02-27 01:01:00,
2013-02-26 17:11:00,46.0,34.0,30.27,West,278,4.0,7.0,63,-99.99,,,-99.99,,2013-02-27 01:11:00,
2013-02-26 17:21:00,46.0,34.0,30.27,West,262,4.0,6.0,63,-99.99,,,-99.99,,2013-02-27 01:21:00,
2013-02-26 17:31:00,45.0,34.0,30.27,WSW,243,3.0,4.0,63,-99.99,,,-99.99,,2013-02-27 01:31:00,
2013-02-26 17:41:00,45.0,34.0,30.27,WSW,254,3.0,4.0,64,-99.99,,,-99.99,,2013-02-27 01:41:00,
2013-02-26 17:51:00,45.0,34.0,30.27,WSW,249,2.0,3.0,64,-99.99,,,-99.99,,2013-02-27 01:51:00,
2013-02-26 18:01:00,45.0,34.0,30.27,SW,227,2.0,2.0,65,-99.99,,,-99.99,,2013-02-27 02:01:00,
2013-02-26 18:13:00,45.0,34.0,30.27,SSW,200,1.0,1.0,65,-99.99,,,-99.99,,2013-02-27 02:13:00,
2013-02-26 18:22:00,43.0,33.0,30.27,South,185,1.0,1.0,67,-99.99,,,-99.99,,2013-02-27 02:22:00,
2013-02-26 18:32:00,43.0,35.0,30.27,West,274,2.0,2.0,73,-99.99,,,-99.99,,2013-02-27 02:32:00,
2013-02-26 18:41:00,43.0,36.0,30.27,NW,305,1.0,2.0,76,-99.99,,,-99.99,,2013-02-27 02:41:00,
2013-02-26 18:52:00,43.0,35.0,30.27,WNW,301,3.0,5.0,73,-99.99,,,-99.99,,2013-02-27 02:52:00,
2013-02-26 19:01:00,42.0,35.0,30.27,WSW,245,2.0,2.0,73,-99.99,,,-99.99,,2013-02-27 03:01:00,
2013-02-26 19:11:00,43.0,35.0,30.27,WSW,239,2.0,2.0,73,-99.99,,,-99.99,,2013-02-27 03:11:00,
2013-02-26 19:21:00,42.0,34.0,30.27,WSW,237,2.0,3.0,74,-99.99,,,-99.99,,2013-02-27 03:21:00,
2013-02-26 19:31:00,42.0,35.0,30.27,SSW,206,2.0,3.0,74,-99.99,,,-99.99,,2013-02-27 03:31:00,
2013-02-26 19:41:00,42.0,35.0,30.27,SSE,154,2.0,2.0,74,-99.99,,,-99.99,,2013-02-27 03:41:00,
2013-02-26 19:51:00,42.0,35.0,30.27,SSE,164,1.0,3.0,76,-99.99,,,-99.99,,2013-02-27 03:51:00,
2013-02-26 20:01:00,42.0,35.0,30.27,South,181,2.0,3.0,77,-99.99,,,-99.99,,2013-02-27 04:01:00,
2013-02-26 20:11:00,42.0,35.0,30.27,SSW,194,2.0,5.0,78,-99.99,,,-99.99,,2013-02-27 04:11:00,
2013-02-26 20:21:00,41.0,35.0,30.27,SW,233,3.0,5.0,79,-99.99,,,-99.99,,2013-02-27 04:21:00,
2013-02-26 20:31:00,41.0,36.0,30.27,WNW,301,1.0,2.0,79,-99.99,,,-99.99,,2013-02-27 04:31:00,
2013-02-26 20:41:00,41.0,35.0,30.26,WNW,293,1.0,1.0,79,-99.99,,,-99.99,,2013-02-27 04:41:00,
2013-02-26 20:51:00,41.0,36.0,30.26,NNE,13,2.0,3.0,79,-99.99,,,-99.99,,2013-02-27 04:51:00,
2013-02-26 21:01:00,41.0,36.0,30.27,NW,320,1.0,4.0,81,-99.99,,,-99.99,,2013-02-27 05:01:00,
2013-02-26 21:11:00,41.0,36.0,30.27,ESE,110,2.0,2.0,83,-99.99,,,-99.99,,2013-02-27 05:11:00,
2013-02-26 21:22:00,41.0,36.0,30.27,ESE,123,2.0,3.0,84,-99.99,,,-99.99,,2013-02-27 05:22:00,
2013-02-26 21:32:00,41.0,37.0,30.27,East,83,2.0,3.0,84,-99.99,,,-99.99,,2013-02-27 05:32:00,
2013-02-26 21:41:00,41.0,37.0,30.27,NNE,28,0.0,1.0,85,-99.99,,,-99.99,,2013-02-27 05:41:00,
2013-02-26 21:52:00,41.0,37.0,30.27,WNW,288,1.0,1.0,85,-99.99,,,-99.99,,2013-02-27 05:52:00,
2013-02-26 22:02:00,41.0,37.0,30.27,WNW,288,1.0,1.0,85,-99.99,,,-99.99,,2013-02-27 06:02:00,
2013-02-26 22:11:00,40.0,37.0,30.28,SSE,163,1.0,3.0,88,-99.99,,,-99.99,,2013-02-27 06:11:00,
2013-02-26 22:21:00,40.0,36.0,30.27,SSE,168,2.0,2.0,87,-99.99,,,-99.99,,2013-02-27 06:21:00,
2013-02-26 22:32:00,39.0,36.0,30.27,SSW,213,1.0,1.0,88,-99.99,,,-99.99,,2013-02-27 06:32:00,
2013-02-26 22:41:00,39.0,37.0,30.27,SSW,213,1.0,1.0,91,-99.99,,,-99.99,,2013-02-27 06:41:00,
2013-02-26 22:51:00,39.0,37.0,30.27,South,185,1.0,2.0,95,-99.99,,,-99.99,,2013-02-27 06:51:00,
2013-02-26 23:01:00,38.0,37.0,30.26,SSW,193,1.0,1.0,96,-99.99,,,-99.99,,2013-02-27 07:01:00,
2013-02-26 23:12:00,38.0,37.0,30.26,West,263,0.0,1.0,98,-99.99,,,-99.99,,2013-02-27 07:12:00,
2013-02-26 23:21:00,37.0,37.0,30.26,NE,55,1.0,2.0,99,-99.99,,,-99.99,,2013-02-27 07:21:00,
2013-02-26 23:31:00,37.0,37.0,30.26,NE,39,1.0,2.0,100,-99.99,,,-99.99,,2013-02-27 07:31:00,
2013-02-26 23:41:00,37.0,37.0,30.26,East,98,0.0,1.0,100,-99.99,,,-99.99,,2013-02-27 07:41:00,
2013-02-26 23:51:00,37.0,37.0,30.26,East,95,2.0,3.0,100,-99.99,,,-99.99,,2013-02-27 07:51:00,